Total_Precipitation_Accumulation
0.23 0.25 0.23 0.22 0.22 0.20 0.20 0.21 0.20 0.18 0.16 0.14 0.12 0.11 0.10 0.10 0.10 0.11 0.11 0.11 0.12 0.12 0.12 0.12 0.12 0.12 0.12 0.11 0.11 0.12 0.12 0.17 0.22 0.12 0.06 0.06 0.08 0.11 0.14 0.17 0.16 0.14 0.12
0.15 0.14 0.14 0.14 0.13 0.13 0.13 0.13 0.12 0.12 0.12 0.11 0.11 0.11 0.11 0.11 0.11 0.12 0.12 0.11 0.12 0.12 0.11 0.11 0.11 0.11 0.13 0.12 0.12 0.12 0.13 0.19 0.27 0.25 0.16 0.12 0.12 0.14 0.17 0.18 0.12 0.11 0.13
0.11 0.10 0.10 0.11 0.11 0.11 0.11 0.11 0.11 0.11 0.10 0.09 0.08 0.08 0.07 0.07 0.08 0.08 0.09 0.09 0.09 0.08 0.08 0.08 0.07 0.08 0.10 0.10 0.12 0.13 0.16 0.18 0.25 0.29 0.20 0.15 0.12 0.11 0.18 0.21 0.20 0.24 0.15
0.11 0.11 0.12 0.12 0.11 0.11 0.11 0.10 0.09 0.07 0.06 0.05 0.05 0.04 0.04 0.04 0.05 0.04 0.04 0.04 0.04 0.04 0.04 0.05 0.05 0.07 0.11 0.14 0.13 0.15 0.19 0.22 0.23 0.26 0.22 0.16 0.14 0.14 0.26 0.34 0.31 0.26 0.19
0.13 0.13 0.13 0.11 0.10 0.09 0.08 0.07 0.05 0.04 0.03 0.03 0.03 0.02 0.02 0.02 0.01 0.01 0.01 0.01 0.01 0.02 0.03 0.04 0.05 0.07 0.13 0.15 0.16 0.18 0.23 0.27 0.28 0.31 0.28 0.23 0.19 0.24 0.34 0.38 0.34 0.24 0.17
0.16 0.14 0.12 0.10 0.09 0.08 0.06 0.05 0.04 0.04 0.03 0.03 0.02 0.02 0.02 0.01 0.00 0.00 0.00 0.01 0.02 0.03 0.05 0.06 0.05 0.05 0.07 0.09 0.11 0.15 0.22 0.29 0.34 0.38 0.36 0.31 0.26 0.33 0.42 0.44 0.44 0.39 0.28
0.19 0.17 0.16 0.13 0.11 0.08 0.05 0.04 0.04 0.04 0.03 0.03 0.02 0.03 0.03 0.02 0.00 0.00 0.00 0.01 0.04 0.07 0.09 0.09 0.07 0.07 0.11 0.14 0.11 0.10 0.13 0.20 0.34 0.46 0.48 0.39 0.37 0.43 0.55 0.55 0.49 0.47 0.38
0.21 0.19 0.15 0.12 0.10 0.07 0.04 0.04 0.03 0.04 0.04 0.04 0.04 0.04 0.07 0.03 0.00 0.00 0.00 0.02 0.05 0.08 0.09 0.10 0.13 0.17 0.15 0.10 0.08 0.10 0.18 0.31 0.38 0.42 0.48 0.44 0.44 0.49 0.58 0.59 0.53 0.45 0.35
0.19 0.14 0.10 0.08 0.06 0.04 0.04 0.04 0.04 0.05 0.05 0.04 0.04 0.05 0.09 0.08 0.01 0.00 0.00 0.02 0.04 0.06 0.06 0.08 0.11 0.16 0.12 0.11 0.11 0.16 0.23 0.34 0.33 0.42 0.48 0.55 0.59 0.58 0.54 0.51 0.56 0.58 0.49
0.10 0.06 0.05 0.05 0.04 0.04 0.04 0.04 0.05 0.05 0.06 0.05 0.05 0.07 0.10 0.11 0.02 0.00 0.01 0.03 0.05 0.05 0.08 0.14 0.12 0.10 0.11 0.12 0.12 0.21 0.31 0.37 0.49 0.65 0.77 0.82 0.77 0.68 0.58 0.56 0.63 0.67 0.66
0.05 0.04 0.05 0.04 0.04 0.04 0.04 0.06 0.06 0.07 0.09 0.09 0.09 0.10 0.11 0.07 0.03 0.00 0.01 0.03 0.05 0.07 0.13 0.22 0.24 0.14 0.14 0.12 0.14 0.25 0.38 0.46 0.68 0.93 0.97 0.83 0.69 0.59 0.54 0.53 0.56 0.62 0.67
0.05 0.05 0.06 0.04 0.02 0.02 0.06 0.08 0.08 0.10 0.12 0.12 0.12 0.12 0.12 0.10 0.05 0.02 0.01 0.02 0.04 0.10 0.22 0.25 0.24 0.20 0.17 0.17 0.23 0.37 0.46 0.64 0.86 1.00 0.90 0.71 0.58 0.49 0.44 0.41 0.44 0.49 0.53
0.08 0.08 0.06 0.05 0.03 0.03 0.05 0.07 0.09 0.11 0.11 0.09 0.09 0.09 0.09 0.11 0.09 0.02 0.01 0.02 0.04 0.10 0.22 0.26 0.26 0.24 0.27 0.39 0.46 0.55 0.64 0.80 0.94 0.89 0.75 0.65 0.56 0.47 0.42 0.40 0.40 0.43 0.45
0.13 0.11 0.10 0.09 0.05 0.04 0.04 0.04 0.07 0.08 0.08 0.08 0.08 0.08 0.09 0.11 0.09 0.06 0.05 0.07 0.09 0.14 0.22 0.33 0.44 0.48 0.51 0.60 0.68 0.76 0.82 0.88 0.84 0.72 0.61 0.57 0.50 0.44 0.42 0.38 0.38 0.40 0.41
0.11 0.10 0.09 0.06 0.05 0.06 0.06 0.03 0.03 0.04 0.02 0.03 0.05 0.06 0.09 0.10 0.07 0.08 0.09 0.11 0.15 0.20 0.24 0.38 0.55 0.62 0.67 0.71 0.71 0.76 0.79 0.75 0.73 0.67 0.60 0.53 0.47 0.43 0.41 0.38 0.38 0.36 0.38
0.08 0.08 0.07 0.04 0.04 0.06 0.09 0.10 0.03 0.01 0.00 0.01 0.02 0.04 0.05 0.08 0.07 0.06 0.09 0.13 0.18 0.25 0.31 0.48 0.63 0.68 0.70 0.70 0.67 0.67 0.68 0.65 0.61 0.58 0.57 0.52 0.48 0.43 0.42 0.39 0.38 0.37 0.39
0.05 0.06 0.05 0.05 0.06 0.06 0.09 0.17 0.20 0.11 0.03 0.01 0.02 0.04 0.05 0.07 0.07 0.06 0.08 0.13 0.17 0.23 0.32 0.50 0.67 0.77 0.78 0.72 0.65 0.62 0.67 0.67 0.64 0.60 0.55 0.51 0.45 0.41 0.38 0.37 0.34 0.34 0.35
0.04 0.05 0.04 0.07 0.06 0.05 0.07 0.11 0.18 0.22 0.20 0.15 0.07 0.05 0.06 0.08 0.10 0.10 0.11 0.14 0.20 0.26 0.37 0.51 0.63 0.68 0.70 0.70 0.64 0.61 0.64 0.67 0.64 0.56 0.51 0.47 0.42 0.37 0.34 0.36 0.33 0.27 0.26
0.03 0.05 0.04 0.03 0.04 0.04 0.05 0.07 0.10 0.13 0.18 0.20 0.18 0.11 0.09 0.10 0.14 0.16 0.16 0.18 0.24 0.29 0.36 0.45 0.53 0.54 0.51 0.52 0.51 0.51 0.55 0.59 0.54 0.45 0.41 0.41 0.37 0.33 0.32 0.33 0.27 0.18 0.19
0.02 0.01 0.01 0.02 0.03 0.03 0.04 0.05 0.06 0.10 0.15 0.19 0.17 0.13 0.13 0.19 0.25 0.25 0.19 0.17 0.18 0.21 0.29 0.37 0.43 0.41 0.38 0.37 0.34 0.33 0.36 0.39 0.37 0.34 0.32 0.30 0.30 0.30 0.27 0.25 0.22 0.19 0.18
0.02 0.01 0.01 0.01 0.03 0.03 0.02 0.02 0.03 0.06 0.09 0.13 0.12 0.09 0.14 0.20 0.27 0.29 0.29 0.26 0.24 0.23 0.24 0.26 0.30 0.33 0.32 0.29 0.25 0.22 0.23 0.24 0.24 0.25 0.26 0.26 0.26 0.24 0.20 0.16 0.13 0.10 0.10
0.00 0.01 0.01 0.02 0.02 0.02 0.01 0.01 0.01 0.03 0.06 0.09 0.10 0.09 0.14 0.17 0.21 0.24 0.29 0.33 0.32 0.29 0.25 0.23 0.23 0.26 0.29 0.28 0.22 0.18 0.17 0.18 0.20 0.23 0.24 0.24 0.22 0.18 0.14 0.11 0.08 0.06 0.05
0.00 0.00 0.00 0.01 0.00 0.00 0.00 0.00 0.01 0.01 0.04 0.06 0.08 0.10 0.11 0.16 0.18 0.21 0.25 0.30 0.33 0.31 0.26 0.22 0.22 0.25 0.27 0.27 0.23 0.17 0.14 0.14 0.16 0.18 0.23 0.23 0.19 0.15 0.11 0.08 0.05 0.04 0.03
0.00 0.00 0.00 0.00 0.00 0.00 0.00 0.00 0.00 0.00 0.01 0.02 0.04 0.07 0.10 0.14 0.15 0.17 0.21 0.25 0.29 0.30 0.29 0.27 0.26 0.26 0.25 0.24 0.21 0.13 0.10 0.11 0.12 0.14 0.18 0.20 0.17 0.13 0.08 0.06 0.04 0.03 0.02
0.00 0.00 0.00 0.00 0.00 0.00 0.00 0.00 0.00 0.00 0.01 0.01 0.02 0.03 0.05 0.07 0.10 0.11 0.15 0.19 0.22 0.25 0.25 0.24 0.24 0.22 0.20 0.17 0.14 0.10 0.09 0.11 0.12 0.12 0.14 0.15 0.12 0.10 0.08 0.06 0.04 0.03 0.03
0.00 0.00 0.00 0.00 0.00 0.00 0.00 0.01 0.01 0.01 0.01 0.01 0.01 0.02 0.02 0.03 0.05 0.07 0.08 0.09 0.12 0.16 0.19 0.20 0.20 0.17 0.12 0.08 0.07 0.07 0.07 0.05 0.05 0.06 0.10 0.13 0.11 0.09 0.08 0.07 0.04 0.03 0.02